[Iaude] MPEC B130: 2023 UF14 [a=2.79,e=0.58,i=40.7,H=18.86]

mpec at marsden.cfa.harvard.edu mpec at marsden.cfa.harvard.edu
Wed Jan 24 09:21:55 EST 2024


M.P.E.C. 2024-B130                             Issued 2024 January 24, 14:20 UT

     The Minor Planet Electronic Circulars contain information on unusual
         minor planets, routine data on comets and natural satellites,
         and occasional editorial announcements.  They are published
    on behalf of Division F of the International Astronomical Union by the
          Minor Planet Center, Smithsonian Astrophysical Observatory,
                          Cambridge, MA 02138, U.S.A.
			  
             Prepared using the Tamkin Foundation Computer Network

                              MPC at CFA.HARVARD.EDU
            URL https://www.minorplanetcenter.net/    ISSN 1523-6714

                                   2023 UF14                                    


                           Revision to MPEC 2023-V121                           

Additional Observations:
     K23U14F tC2010 01 19.22247 08 33 01.22 +73 06 39.1          17.5 RcEB130661
     K23U14F tC2010 01 19.23618 08 32 47.82 +73 05 04.1          17.8 RcEB130661
     K23U14F pC2010 01 19.27298 08 32 09.91 +73 00 44.6          17.5 RcEB130661
     K23U14F HC2010 01 19.29015 08 31 52.71 +72 58 42.8                cEB130661
     K23U14F  C2010 02 15.28130406 43 54.487-04 10 43.40         18.35GVEB130F51
     K23U14F  C2010 02 15.29065206 43 54.286-04 11 38.69         18.43GVEB130F51
     K23U14F  C2010 02 28.29197706 47 12.318-18 15 12.14         19.54GVEB130F51
     K23U14F  C2010 02 28.30059906 47 12.555-18 15 33.12         19.54GVEB130F51

Observer details:
661 Rothney Astrophysical Observatory, Priddis.  Observer R. D. Cardinal.
    0.50-m f/1.0 reflector + CCD.
F51 Pan-STARRS 1, Haleakala.  Observers J. Herman, T. Lowe, P. Minguez, A.
    Schultz, I. Smith.  Measurers K. Chambers, T. de Boer, J. Fairlamb, H.
    Gao, M. Huber, C.-C. Lin, E. Magnier, Y. Ramanjooloo, R. Wainscoat, R.
    Weryk.  1.8-m Ritchey-Chretien + CCD.

First and last observations above in comparison with prediction:
Residuals in seconds of arc (or zero decimals in degrees), reference and Delta-T
100119 661    8-   25-    100228 F51    7-   11-    MPO775836   -2.13 days

Orbital elements:
2023 UF14                                                Earth MOID = 0.2026 AU
Epoch 2023 Sept. 13.0 TT = JDT 2460200.5                Veres                   
M 341.11059              (2000.0)            P               Q                  
n   0.21190248     Peri.  162.13980     -0.42038053     -0.75296572             
a   2.7864122      Node   309.12783     +0.73234583     +0.04784924             
e   0.5798234      Incl.   40.74137     +0.53567695     -0.65631781             
P   4.65           H   18.86          G   0.15           U   0                  
Residuals in seconds of arc
100119 661  1.5-  0.8-    231216 B88  0.5-  0.5+    231223 C51  0.4-  0.1+
100119 661  1.1+  0.3+    231216 B88  1.0-  0.4-    231223 C51  0.2-  0.1+
100119 661  0.6-  0.1+    231217 G96  0.4-  0.1-    231223 C51  0.2-  0.2+
100119 661  0.6+  0.1-    231217 G96  0.3-  0.4+    231223 C51  0.3-  0.3-
100215 F51  0.0   0.0     231217 G96  0.0   0.2+    231223 C51  0.1+  0.1+
100215 F51  0.1+  0.0     231217 G96  0.0   0.2+    231223 C51  0.2-  0.2-
100228 F51  0.1-  0.2-    231217 G96  0.2-  0.0     231223 C51  0.3-  0.1-
100228 F51  0.1-  0.0     231217 G96  0.0   0.1-    231223 C51  0.0   0.0
231031 F51  0.3+  0.1+    231217 G96  0.0   0.1+    231223 C51  0.4-  0.1+
231031 F51  0.1+  0.2-    231217 G96  0.5-  0.7+    231223 C51  1.0-  0.0
231031 F51  0.3-  0.2+    231218 B88  0.0   0.2+    231223 C51  0.2-  0.2-
231101 F51  0.1-  0.1+    231218 B88  1.0-  1.1+    231223 C51  0.6-  0.2-
231101 F51  0.1-  0.0     231218 B88  0.4-  1.6+    231223 C51  0.1-  0.6+
231103 F51  0.1-  0.0     231219 B88  0.0   0.2+    231223 C51  0.2+  0.6+
231103 F51  0.0   0.0     231219 B88  0.1+  0.4+    231224 C51  0.3-  0.6+
231108 I52  0.1-  0.3-    231219 B88  0.1+  0.3+    231224 C51  0.5-  0.4+
231108 I52  0.2+  0.1+    231221 B88  1.4+  0.1+    231225 B88  0.8-  0.2+
231108 I52  0.0   0.2+    231221 B88  0.1+  0.4+    231225 B88  0.2+  0.0
231113 G96  0.1-  0.2-    231221 B88  0.2-  0.3+    231225 B88  0.3+  0.5+
231113 G96  0.3+  0.1+    231222 C51  0.1-  0.3+    240119 691  0.1+  0.4+
231113 G96  0.0   0.2+    231222 C51  0.1-  0.2+    240119 691  1.0+  0.3+
231113 G96  0.3-  0.1-    231222 C51  0.0   0.1+    240120 807  0.0   0.1+
231206 I52  0.4+  0.2+    231222 C51  0.5-  0.0     240120 807  0.4+  0.1+
231206 I52  0.2+  0.1-    231222 C51  0.1+  0.2+    240120 807  0.4-  0.4+
231206 I52  0.4-  0.5-    231222 C51  0.4-  0.0
231216 B88  1.4+  1.9+    231222 C51  0.3-  0.1+

Ephemeris:
2023 UF14                a,e,i = 2.79, 0.58, 41                  q = 1.1708
Date    TT    R. A. (2000) Decl.     Delta      r    Elong.  Phase     V
2023 12 25    12 16 15.9 +03 56 46   0.6497  1.1827    90.4    56.3    20.3
...
2024 01 09    12 15 05.1 -15 31 56   0.6007  1.2211    97.9    52.9    20.1
...
2024 01 17    12 09 13.9 -26 11 29   0.5970  1.2513   101.9    50.3    20.1
...
2024 01 23    12 01 39.0 -33 46 51   0.6052  1.2778   104.5    48.2    20.1
2024 01 24    12 00 04.8 -34 59 17   0.6074  1.2825   104.9    47.9    20.1
2024 01 25    11 58 25.1 -36 10 31   0.6099  1.2872   105.3    47.5    20.1
...
2024 01 31    11 46 22.3 -42 49 11   0.6297  1.3175   107.3    45.6    20.2
...
2024 02 08    11 24 22.3 -50 09 11   0.6677  1.3617   109.3    43.1    20.3
...
2024 02 23    10 27 49.4 -58 29 24   0.7653  1.4539   111.3    39.3    20.7

A. U. Tomatic                (C) Copyright 2024 MPC           M.P.E.C. 2024-B130





More information about the Iaude mailing list